Location: Allaines
(49.9632°N, 2.9458°E)
Time: 15:13:37
(UTC+00:00)

Tiangong - Pass Details

Date: 28 June 2021
Orbit: 373 x 386 km, 41.5° (Epoch: 02 August)

Event Time Altitude Azimuth Distance (km) Brightness Sun altitude
Exits shadow 02:41:47 10° 227° (SW) 1,363 3.2 -7.6°
Maximum altitude 02:43:40 16° 189° (S) 1,102 2.9 -7.4°
Drops below altitude 10° 02:45:39 10° 150° (SSE) 1,388 3.7 -7.2°
Sets 02:48:16 0° 127° (SE) 2,243 5.0 -7.0°
